When you browse on this site, cookies collect data to enhance your experience and personalize the content and advertising you see.
Visit our Privacy Policy to learn more. By continuing to use the site, you agree to this use of cookies and data.
  • In Romania
  • List of Countries
  • For 7 days
  • Water Temperature
  • Satellite Maps
  • Weather Map
  • Weather Widgets
  • user-avatar
    Login

    Hourly Weather Romanovo

    Today, 20 June, Thursday

    Time Temperature Precipitation Wind Pressure Humidity
    00:00 +16°C° 0 mm 1 mps 749 mmHg 69%
    01:00 +15°C° 0 mm 1 mps 749 mmHg 70%
    02:00 +14°C° 0 mm 1 mps 749 mmHg 72%
    03:00 +15°C° 0 mm 1 mps 749 mmHg 72%
    04:00 +16°C° 0 mm 1 mps 749 mmHg 73%
    05:00 +18°C° 0 mm 1 mps 750 mmHg 74%
    06:00 +20°C° 0 mm 1 mps 750 mmHg 67%
    07:00 +23°C° 0 mm 1 mps 750 mmHg 59%
    08:00 +25°C° 0 mm 1 mps 750 mmHg 52%
    09:00 +26°C° 0 mm 1 mps 750 mmHg 48%
    10:00 +27°C° 0 mm 1 mps 750 mmHg 43%
    11:00 +29°C° 0 mm 1 mps 750 mmHg 38%
    12:00 +29°C° 0 mm 1 mps 750 mmHg 36%
    13:00 +29°C° 0 mm 1 mps 749 mmHg 34%
    14:00 +30°C° 0 mm 1 mps 749 mmHg 32%
    15:00 +29°C° 0 mm 2 mps 749 mmHg 37%
    16:00 +29°C° 0 mm 2 mps 749 mmHg 42%
    17:00 +28°C° 0 mm 2 mps 748 mmHg 47%
    18:00 +26°C° 0 mm 2 mps 748 mmHg 56%
    19:00 +24°C° 0 mm 2 mps 748 mmHg 65%
    20:00 +21°C° 0 mm 2 mps 748 mmHg 74%
    21:00 +21°C° 0 mm 1 mps 749 mmHg 75%
    22:00 +20°C° 0 mm 1 mps 749 mmHg 76%
    23:00 +19°C° 0 mm 1 mps 749 mmHg 77%

    Tomorrow, 21 June, Friday

    Time Temperature Precipitation Wind Pressure Humidity
    00:00 +19°C° 0 mm 1 mps 749 mmHg 78%
    01:00 +18°C° 0 mm 1 mps 749 mmHg 80%
    02:00 +18°C° 0 mm 1 mps 749 mmHg 81%
    03:00 +18°C° 0 mm 1 mps 749 mmHg 80%
    04:00 +19°C° 0 mm 1 mps 749 mmHg 80%
    05:00 +20°C° 0 mm 1 mps 749 mmHg 80%
    06:00 +20°C° 0 mm 2 mps 749 mmHg 75%
    07:00 +23°C° 0 mm 2 mps 749 mmHg 70%
    08:00 +25°C° 0 mm 3 mps 749 mmHg 65%
    09:00 +26°C° 0 mm 3 mps 749 mmHg 61%
    10:00 +27°C° 0 mm 4 mps 749 mmHg 57%
    11:00 +28°C° 0 mm 4 mps 749 mmHg 53%
    12:00 +28°C° 0.1 mm 4 mps 748 mmHg 54%
    13:00 +28°C° 0.1 mm 5 mps 748 mmHg 56%
    14:00 +28°C° 0.1 mm 5 mps 748 mmHg 58%
    15:00 +26°C° 0.7 mm 4 mps 748 mmHg 69%
    16:00 +24°C° 0.7 mm 3 mps 747 mmHg 80%
    17:00 +21°C° 0.7 mm 2 mps 747 mmHg 91%
    18:00 +21°C° 0.8 mm 3 mps 747 mmHg 92%
    19:00 +21°C° 0.8 mm 3 mps 747 mmHg 94%
    20:00 +20°C° 0.8 mm 3 mps 747 mmHg 95%
    21:00 +20°C° 0.5 mm 3 mps 747 mmHg 95%
    22:00 +20°C° 0.5 mm 3 mps 747 mmHg 95%
    23:00 +20°C° 0.5 mm 3 mps 747 mmHg 95%

    Day after tomorrow, 22 June, Saturday

    Time Temperature Precipitation Wind Pressure Humidity
    00:00 +20°C° 0 mm 3 mps 747 mmHg 95%
    01:00 +20°C° 0 mm 3 mps 747 mmHg 95%
    02:00 +20°C° 0 mm 3 mps 747 mmHg 95%
    03:00 +20°C° 0 mm 3 mps 746 mmHg 95%
    04:00 +20°C° 0 mm 3 mps 746 mmHg 95%
    05:00 +20°C° 0 mm 3 mps 746 mmHg 94%
    06:00 +22°C° 0.3 mm 3 mps 746 mmHg 90%
    07:00 +24°C° 0.3 mm 3 mps 746 mmHg 86%
    08:00 +25°C° 0.3 mm 3 mps 747 mmHg 82%
    09:00 +26°C° 1.1 mm 4 mps 747 mmHg 79%
    10:00 +27°C° 1.1 mm 4 mps 747 mmHg 77%
    11:00 +27°C° 1.1 mm 4 mps 747 mmHg 74%
    12:00 +28°C° 0.3 mm 4 mps 747 mmHg 72%
    13:00 +28°C° 0.3 mm 3 mps 747 mmHg 69%
    14:00 +29°C° 0.3 mm 3 mps 747 mmHg 66%
    15:00 +28°C° 0.7 mm 3 mps 747 mmHg 72%
    16:00 +27°C° 0.7 mm 3 mps 747 mmHg 78%
    17:00 +26°C° 0.7 mm 2 mps 747 mmHg 84%
    18:00 +24°C° 0.6 mm 2 mps 747 mmHg 86%
    19:00 +23°C° 0.6 mm 2 mps 747 mmHg 89%
    20:00 +21°C° 0.6 mm 2 mps 748 mmHg 92%
    21:00 +20°C° 0 mm 2 mps 748 mmHg 92%
    22:00 +19°C° 0 mm 2 mps 748 mmHg 93%
    23:00 +18°C° 0 mm 2 mps 748 mmHg 93%

    23 June, Sunday

    Time Temperature Precipitation Wind Pressure Humidity
    00:00 +17°C° 0 mm 2 mps 749 mmHg 93%
    01:00 +16°C° 0 mm 2 mps 749 mmHg 92%
    02:00 +14°C° 0 mm 3 mps 750 mmHg 91%
    03:00 +14°C° 0 mm 3 mps 750 mmHg 89%
    04:00 +13°C° 0 mm 3 mps 751 mmHg 86%
    05:00 +14°C° 0 mm 2 mps 751 mmHg 84%
    06:00 +16°C° 0 mm 2 mps 752 mmHg 74%
    07:00 +17°C° 0 mm 2 mps 752 mmHg 64%
    08:00 +18°C° 0 mm 2 mps 753 mmHg 54%
    09:00 +19°C° 0 mm 2 mps 753 mmHg 50%
    10:00 +21°C° 0 mm 3 mps 753 mmHg 47%
    11:00 +22°C° 0 mm 3 mps 753 mmHg 43%
    12:00 +22°C° 0 mm 3 mps 753 mmHg 42%
    13:00 +24°C° 0 mm 3 mps 753 mmHg 42%
    14:00 +24°C° 0 mm 2 mps 753 mmHg 41%
    15:00 +24°C° 0 mm 2 mps 753 mmHg 43%
    16:00 +24°C° 0 mm 2 mps 753 mmHg 44%
    17:00 +23°C° 0 mm 2 mps 753 mmHg 46%
    18:00 +20°C° 0 mm 2 mps 753 mmHg 53%
    19:00 +19°C° 0 mm 2 mps 753 mmHg 59%
    20:00 +17°C° 0 mm 2 mps 754 mmHg 66%
    21:00 +16°C° 0 mm 2 mps 754 mmHg 65%
    22:00 +15°C° 0 mm 2 mps 754 mmHg 65%
    23:00 +13°C° 0 mm 2 mps 755 mmHg 64%

    24 June, Monday

    Time Temperature Precipitation Wind Pressure Humidity
    00:00 +13°C° 0 mm 2 mps 755 mmHg 67%
    01:00 +12°C° 0 mm 2 mps 755 mmHg 69%
    02:00 +12°C° 0 mm 2 mps 755 mmHg 72%
    03:00 +12°C° 0 mm 1 mps 755 mmHg 71%
    04:00 +13°C° 0 mm 1 mps 756 mmHg 70%
    05:00 +14°C° 0 mm 1 mps 756 mmHg 70%
    06:00 +16°C° 0 mm 1 mps 756 mmHg 63%
    07:00 +17°C° 0 mm 2 mps 756 mmHg 57%
    08:00 +19°C° 0 mm 2 mps 756 mmHg 50%
    09:00 +20°C° 0 mm 2 mps 756 mmHg 47%
    10:00 +21°C° 0 mm 2 mps 756 mmHg 44%
    11:00 +22°C° 0 mm 3 mps 756 mmHg 40%
    12:00 +24°C° 0 mm 2 mps 756 mmHg 39%
    13:00 +24°C° 0 mm 2 mps 756 mmHg 38%
    14:00 +25°C° 0 mm 2 mps 756 mmHg 37%
    15:00 +24°C° 0 mm 2 mps 756 mmHg 41%
    16:00 +24°C° 0 mm 2 mps 756 mmHg 44%
    17:00 +24°C° 0 mm 2 mps 755 mmHg 48%
    18:00 +21°C° 0 mm 2 mps 756 mmHg 55%
    19:00 +19°C° 0 mm 2 mps 756 mmHg 62%
    20:00 +17°C° 0 mm 2 mps 756 mmHg 69%
    21:00 +16°C° 0 mm 2 mps 756 mmHg 68%
    22:00 +15°C° 0 mm 2 mps 756 mmHg 67%
    23:00 +14°C° 0 mm 2 mps 756 mmHg 67%

    25 June, Tuesday

    Time Temperature Precipitation Wind Pressure Humidity
    00:00 +14°C° 0 mm 2 mps 757 mmHg 65%
    01:00 +13°C° 0 mm 2 mps 757 mmHg 64%
    02:00 +12°C° 0 mm 2 mps 757 mmHg 63%
    03:00 +13°C° 0 mm 2 mps 757 mmHg 65%
    04:00 +13°C° 0 mm 1 mps 757 mmHg 67%
    05:00 +13°C° 0 mm 1 mps 757 mmHg 69%
    06:00 +15°C° 0 mm 1 mps 757 mmHg 62%
    07:00 +17°C° 0 mm 2 mps 756 mmHg 56%
    08:00 +18°C° 0 mm 2 mps 756 mmHg 50%
    09:00 +20°C° 0 mm 2 mps 756 mmHg 45%
    10:00 +21°C° 0 mm 2 mps 756 mmHg 40%
    11:00 +23°C° 0 mm 2 mps 756 mmHg 35%
    12:00 +23°C° 0 mm 2 mps 756 mmHg 34%
    13:00 +23°C° 0 mm 2 mps 755 mmHg 34%
    14:00 +24°C° 0 mm 2 mps 755 mmHg 33%
    15:00 +23°C° 0 mm 2 mps 755 mmHg 36%
    16:00 +23°C° 0 mm 2 mps 754 mmHg 39%
    17:00 +23°C° 0 mm 2 mps 754 mmHg 42%
    18:00 +20°C° 0 mm 2 mps 754 mmHg 51%
    19:00 +18°C° 0 mm 2 mps 754 mmHg 61%
    20:00 +16°C° 0 mm 2 mps 754 mmHg 70%
    21:00 +16°C° 0 mm 2 mps 753 mmHg 71%
    22:00 +15°C° 0 mm 2 mps 753 mmHg 72%
    23:00 +15°C° 0 mm 2 mps 753 mmHg 72%
    Show more